Location: Berlin
(38.3226°N, 75.2177°W)
Time: 10:47:11
(UTC+00:00)

Cosmos 614 Rocket - Pass Details

Date: 26 October 2020
Orbit: 734 x 763 km, 74.1° (Epoch: 29 November)

Event Time Altitude Azimuth Distance (km) Brightness Sun altitude
Rises 10:18:26 0° 192° (SSW) 3,192 7.2 -12.9°
Reaches altitude 10° 10:20:47 10° 191° (S) 2,267 6.4 -12.5°
Maximum altitude 10:25:55 76° 106° (ESE) 775 4.2 -11.5°
Drops below altitude 10° 10:31:02 10° 22° (NNE) 2,263 6.6 -10.5°
Sets 10:33:23 0° 21° (NNE) 3,186 7.4 -10.0°
